User: anonymous   Login
Location: Drocourt
(49.0571°N, 1.7669°E)
Time: 15:00:29
(UTC+00:00)
Language:

deb Delta 126 - Orbit

View from above orbital plane
View from above orbital plane
View from above satellite
View from above satellite

Ground track
Ground track

The orbit data is extracted from the following two-line orbital elements,

1 10824U 76077BU  24194.04283050  .00012816  00000-0  13038-1 0  9998
2 10824 101.8808 236.1482 0043550  15.5821  13.7288 13.76515889282710
Epoch (UTC): 12 July 2024 01:01:40
Eccentricity: 0.0043550
inclination: 101.8808°
perigee height: 944 km
apogee height: 1008 km
right ascension of ascending node: 236.1482°
argument of perigee: 15.5821°
revolutions per day: 13.76515889
mean anomaly at epoch: 13.7288°
orbit number at epoch: 28271

The dashed part of the orbit path shows where the satellite is in the earth's shadow,  

DLR